Time,TemperatureF,DewpointF,PressureIn,WindDirection,WindDirectionDegrees,WindSpeedMPH,WindSpeedGustMPH,Humidity,HourlyPrecipIn,Conditions,Clouds,dailyrainin,SoftwareType,DateUTC
2013-04-29 00:01:00,53.4,53.1,29.97,ESE,112,0.0,-999.0,99,-99.99,,,0.00,Acu-Link.com,2013-04-29 04:01:00,
2013-04-29 00:17:00,53.6,53.3,29.96,East,90,0.0,-999.0,99,-99.99,,,0.01,Acu-Link.com,2013-04-29 04:17:00,
2013-04-29 00:32:00,53.6,53.3,29.96,NNW,337,0.0,-999.0,99,-99.99,,,0.01,Acu-Link.com,2013-04-29 04:32:00,
2013-04-29 00:47:00,53.8,53.5,29.97,NE,45,0.0,-999.0,99,-99.99,,,0.02,Acu-Link.com,2013-04-29 04:47:00,
2013-04-29 01:03:00,53.8,53.5,29.97,NW,315,0.0,-999.0,99,-99.99,,,0.02,Acu-Link.com,2013-04-29 05:03:00,
2013-04-29 01:18:00,54.0,53.7,29.97,North,0,0.0,-999.0,99,-99.99,,,0.03,Acu-Link.com,2013-04-29 05:18:00,
2013-04-29 01:34:00,54.0,53.7,29.98,NNW,337,0.0,-999.0,99,-99.99,,,0.03,Acu-Link.com,2013-04-29 05:34:00,
2013-04-29 01:49:00,54.0,53.7,29.97,NW,315,0.0,-999.0,99,-99.99,,,0.05,Acu-Link.com,2013-04-29 05:49:00,
2013-04-29 02:04:00,54.0,53.7,29.97,NW,315,0.0,-999.0,99,-99.99,,,0.07,Acu-Link.com,2013-04-29 06:04:00,
2013-04-29 02:20:00,54.0,53.7,29.96,WNW,292,0.0,-999.0,99,-99.99,,,0.07,Acu-Link.com,2013-04-29 06:20:00,
2013-04-29 02:35:00,54.0,53.7,29.95,NNE,22,0.0,-999.0,99,-99.99,,,0.08,Acu-Link.com,2013-04-29 06:35:00,
2013-04-29 02:50:00,54.0,53.7,29.95,East,90,0.0,-999.0,99,-99.99,,,0.08,Acu-Link.com,2013-04-29 06:50:00,
2013-04-29 03:06:00,54.0,53.7,29.95,NNW,337,0.0,-999.0,99,-99.99,,,0.08,Acu-Link.com,2013-04-29 07:06:00,
2013-04-29 03:21:00,54.0,53.7,29.94,North,0,0.0,-999.0,99,-99.99,,,0.08,Acu-Link.com,2013-04-29 07:21:00,
2013-04-29 03:36:00,54.0,53.7,29.94,NNW,337,0.0,-999.0,99,-99.99,,,0.08,Acu-Link.com,2013-04-29 07:36:00,
2013-04-29 03:51:00,54.0,53.7,29.95,NNW,337,0.0,-999.0,99,-99.99,,,0.08,Acu-Link.com,2013-04-29 07:51:00,
2013-04-29 04:07:00,54.1,53.8,29.94,NNW,337,0.0,-999.0,99,-99.99,,,0.08,Acu-Link.com,2013-04-29 08:07:00,
2013-04-29 04:23:00,54.1,53.8,29.93,NE,45,0.0,-999.0,99,-99.99,,,0.08,Acu-Link.com,2013-04-29 08:23:00,
2013-04-29 04:38:00,54.1,53.8,29.94,NNW,337,0.0,-999.0,99,-99.99,,,0.08,Acu-Link.com,2013-04-29 08:38:00,
2013-04-29 04:53:00,54.1,53.8,29.93,North,0,0.0,-999.0,99,-99.99,,,0.08,Acu-Link.com,2013-04-29 08:53:00,
2013-04-29 05:08:00,54.1,53.8,29.92,NE,45,0.0,-999.0,99,-99.99,,,0.08,Acu-Link.com,2013-04-29 09:08:00,
2013-04-29 05:24:00,54.1,53.8,29.92,NNW,337,0.0,-999.0,99,-99.99,,,0.08,Acu-Link.com,2013-04-29 09:24:00,
2013-04-29 05:39:00,54.3,54.0,29.92,NNW,337,0.0,-999.0,99,-99.99,,,0.08,Acu-Link.com,2013-04-29 09:39:00,
2013-04-29 05:54:00,54.3,54.0,29.92,NNW,337,0.0,-999.0,99,-99.99,,,0.08,Acu-Link.com,2013-04-29 09:54:00,
2013-04-29 06:10:00,54.3,54.0,29.92,NE,45,0.0,-999.0,99,-99.99,,,0.08,Acu-Link.com,2013-04-29 10:10:00,
2013-04-29 06:25:00,54.3,54.0,29.93,NNE,22,0.0,-999.0,99,-99.99,,,0.08,Acu-Link.com,2013-04-29 10:25:00,
2013-04-29 06:40:00,54.5,54.2,29.93,NNW,337,0.0,-999.0,99,-99.99,,,0.08,Acu-Link.com,2013-04-29 10:40:00,
2013-04-29 06:56:00,54.5,54.2,29.94,NNE,22,0.0,-999.0,99,-99.99,,,0.08,Acu-Link.com,2013-04-29 10:56:00,
2013-04-29 07:11:00,54.5,54.2,29.94,NNE,22,0.0,-999.0,99,-99.99,,,0.08,Acu-Link.com,2013-04-29 11:11:00,
2013-04-29 07:26:00,54.7,54.4,29.94,NE,45,0.0,-999.0,99,-99.99,,,0.08,Acu-Link.com,2013-04-29 11:26:00,
2013-04-29 07:41:00,55.0,54.7,29.95,ENE,67,0.0,-999.0,99,-99.99,,,0.08,Acu-Link.com,2013-04-29 11:41:00,
2013-04-29 07:57:00,55.2,54.9,29.94,NNW,337,0.0,-999.0,99,-99.99,,,0.08,Acu-Link.com,2013-04-29 11:57:00,
2013-04-29 08:12:00,55.6,55.3,29.95,West,270,0.0,-999.0,99,-99.99,,,0.08,Acu-Link.com,2013-04-29 12:12:00,
2013-04-29 08:28:00,56.3,56.0,29.95,NE,45,0.0,-999.0,99,-99.99,,,0.08,Acu-Link.com,2013-04-29 12:28:00,
2013-04-29 08:43:00,56.8,56.5,29.96,East,90,0.0,-999.0,99,-99.99,,,0.08,Acu-Link.com,2013-04-29 12:43:00,
2013-04-29 08:58:00,57.4,57.1,29.95,East,90,0.0,-999.0,99,-99.99,,,0.08,Acu-Link.com,2013-04-29 12:58:00,
2013-04-29 09:14:00,57.9,57.6,29.96,West,270,0.0,-999.0,99,-99.99,,,0.08,Acu-Link.com,2013-04-29 13:14:00,
2013-04-29 09:29:00,58.6,58.3,29.95,North,0,0.0,-999.0,99,-99.99,,,0.08,Acu-Link.com,2013-04-29 13:29:00,
2013-04-29 09:44:00,59.4,59.1,29.96,North,0,0.0,-999.0,99,-99.99,,,0.08,Acu-Link.com,2013-04-29 13:44:00,
2013-04-29 10:00:00,60.3,60.0,29.95,North,0,0.0,-999.0,99,-99.99,,,0.08,Acu-Link.com,2013-04-29 14:00:00,
2013-04-29 10:15:00,61.0,60.7,29.96,WSW,247,0.0,-999.0,99,-99.99,,,0.08,Acu-Link.com,2013-04-29 14:15:00,
2013-04-29 10:31:00,61.2,60.9,29.96,SE,135,0.0,-999.0,99,-99.99,,,0.08,Acu-Link.com,2013-04-29 14:31:00,
2013-04-29 10:46:00,61.3,61.0,29.96,South,180,0.0,-999.0,99,-99.99,,,0.08,Acu-Link.com,2013-04-29 14:46:00,
2013-04-29 11:01:00,61.7,61.4,29.96,NNE,22,1.7,-999.0,99,-99.99,,,0.08,Acu-Link.com,2013-04-29 15:01:00,
2013-04-29 11:16:00,61.5,61.2,29.97,SSW,202,0.0,-999.0,99,-99.99,,,0.08,Acu-Link.com,2013-04-29 15:16:00,
2013-04-29 11:32:00,62.1,61.8,29.96,ESE,112,0.0,-999.0,99,-99.99,,,0.08,Acu-Link.com,2013-04-29 15:32:00,
2013-04-29 11:47:00,62.2,61.9,29.96,SSE,157,0.0,-999.0,99,-99.99,,,0.08,Acu-Link.com,2013-04-29 15:47:00,
2013-04-29 12:03:00,63.0,62.4,29.96,ESE,112,0.0,-999.0,98,-99.99,,,0.08,Acu-Link.com,2013-04-29 16:03:00,
2013-04-29 12:18:00,63.3,62.7,29.96,ESE,112,0.0,-999.0,98,-99.99,,,0.08,Acu-Link.com,2013-04-29 16:18:00,
2013-04-29 12:33:00,64.0,62.2,29.95,NW,315,0.0,-999.0,94,-99.99,,,0.08,Acu-Link.com,2013-04-29 16:33:00,
2013-04-29 12:48:00,65.1,63.9,29.95,NNE,22,0.0,-999.0,96,-99.99,,,0.08,Acu-Link.com,2013-04-29 16:48:00,
2013-04-29 13:04:00,66.0,63.3,29.95,WNW,292,0.0,-999.0,91,-99.99,,,0.08,Acu-Link.com,2013-04-29 17:04:00,
2013-04-29 13:19:00,65.5,61.5,29.95,NW,315,0.0,-999.0,87,-99.99,,,0.08,Acu-Link.com,2013-04-29 17:19:00,
2013-04-29 13:34:00,66.9,62.9,29.94,WNW,292,0.0,-999.0,87,-99.99,,,0.08,Acu-Link.com,2013-04-29 17:34:00,
2013-04-29 13:50:00,66.9,62.9,29.94,NE,45,0.0,-999.0,87,-99.99,,,0.08,Acu-Link.com,2013-04-29 17:50:00,
2013-04-29 14:05:00,68.2,61.8,29.94,NNW,337,1.7,-999.0,80,-99.99,,,0.08,Acu-Link.com,2013-04-29 18:05:00,
2013-04-29 14:20:00,66.9,63.2,29.92,SSE,157,0.0,-999.0,88,-99.99,,,0.08,Acu-Link.com,2013-04-29 18:20:00,
2013-04-29 14:36:00,68.2,62.1,29.92,ESE,112,0.0,-999.0,81,-99.99,,,0.08,Acu-Link.com,2013-04-29 18:36:00,
2013-04-29 14:51:00,69.6,63.5,29.91,ESE,112,0.0,-999.0,81,-99.99,,,0.08,Acu-Link.com,2013-04-29 18:51:00,
2013-04-29 15:06:00,69.3,62.1,29.90,NW,315,1.7,-999.0,78,-99.99,,,0.08,Acu-Link.com,2013-04-29 19:06:00,
2013-04-29 15:21:00,70.3,61.6,29.89,NW,315,2.2,-999.0,74,-99.99,,,0.08,Acu-Link.com,2013-04-29 19:21:00,
2013-04-29 15:37:00,71.1,62.4,29.89,ESE,112,3.2,-999.0,74,-99.99,,,0.08,Acu-Link.com,2013-04-29 19:37:00,
2013-04-29 15:52:00,70.5,63.3,29.88,South,180,0.0,-999.0,78,-99.99,,,0.08,Acu-Link.com,2013-04-29 19:52:00,
2013-04-29 16:08:00,70.3,62.0,29.87,NW,315,1.7,-999.0,75,-99.99,,,0.08,Acu-Link.com,2013-04-29 20:08:00,
2013-04-29 16:23:00,71.2,64.0,29.87,West,270,0.0,-999.0,78,-99.99,,,0.08,Acu-Link.com,2013-04-29 20:23:00,
2013-04-29 16:38:00,70.2,63.7,29.86,West,270,0.0,-999.0,80,-99.99,,,0.08,Acu-Link.com,2013-04-29 20:38:00,
2013-04-29 16:53:00,71.6,64.4,29.85,SW,225,1.7,-999.0,78,-99.99,,,0.08,Acu-Link.com,2013-04-29 20:53:00,
2013-04-29 17:09:00,72.0,64.0,29.85,NE,45,4.2,-999.0,76,-99.99,,,0.08,Acu-Link.com,2013-04-29 21:09:00,
2013-04-29 17:24:00,72.3,63.1,29.84,West,270,0.0,-999.0,73,-99.99,,,0.08,Acu-Link.com,2013-04-29 21:24:00,
2013-04-29 17:39:00,70.3,62.7,29.84,West,270,0.0,-999.0,77,-99.99,,,0.08,Acu-Link.com,2013-04-29 21:39:00,
2013-04-29 17:55:00,70.2,62.3,29.84,West,270,0.0,-999.0,76,-99.99,,,0.08,Acu-Link.com,2013-04-29 21:55:00,
2013-04-29 18:10:00,69.4,61.5,29.83,South,180,0.0,-999.0,76,-99.99,,,0.08,Acu-Link.com,2013-04-29 22:10:00,
2013-04-29 18:25:00,68.4,60.9,29.83,WSW,247,0.0,-999.0,77,-99.99,,,0.08,Acu-Link.com,2013-04-29 22:25:00,
2013-04-29 18:41:00,67.8,60.3,29.83,WSW,247,0.0,-999.0,77,-99.99,,,0.08,Acu-Link.com,2013-04-29 22:41:00,
2013-04-29 18:56:00,67.3,60.6,29.83,SSW,202,0.0,-999.0,79,-99.99,,,0.08,Acu-Link.com,2013-04-29 22:56:00,
2013-04-29 19:11:00,66.7,60.0,29.84,SW,225,0.0,-999.0,79,-99.99,,,0.08,Acu-Link.com,2013-04-29 23:11:00,
2013-04-29 19:27:00,66.2,59.5,29.85,SSW,202,0.0,-999.0,79,-99.99,,,0.08,Acu-Link.com,2013-04-29 23:27:00,
2013-04-29 19:42:00,65.7,59.7,29.86,SSW,202,0.0,-999.0,81,-99.99,,,0.08,Acu-Link.com,2013-04-29 23:42:00,
2013-04-29 19:57:00,65.1,59.1,29.86,SSW,202,0.0,-999.0,81,-99.99,,,0.08,Acu-Link.com,2013-04-29 23:57:00,
2013-04-29 20:13:00,64.2,59.3,29.87,SSW,202,0.0,-999.0,84,-99.99,,,0.08,Acu-Link.com,2013-04-30 00:13:00,
2013-04-29 20:28:00,63.0,59.1,29.87,SSW,202,0.0,-999.0,87,-99.99,,,0.08,Acu-Link.com,2013-04-30 00:28:00,
2013-04-29 20:43:00,62.1,59.1,29.88,SSW,202,0.0,-999.0,90,-99.99,,,0.08,Acu-Link.com,2013-04-30 00:43:00,
2013-04-29 20:58:00,61.3,59.0,29.88,South,180,0.0,-999.0,92,-99.99,,,0.08,Acu-Link.com,2013-04-30 00:58:00,
2013-04-29 21:14:00,60.8,59.1,29.89,South,180,0.0,-999.0,94,-99.99,,,0.08,Acu-Link.com,2013-04-30 01:14:00,
2013-04-29 21:29:00,60.3,58.9,29.89,South,180,0.0,-999.0,95,-99.99,,,0.08,Acu-Link.com,2013-04-30 01:29:00,
2013-04-29 21:45:00,59.7,58.3,29.89,South,180,0.0,-999.0,95,-99.99,,,0.08,Acu-Link.com,2013-04-30 01:45:00,
2013-04-29 22:00:00,59.2,58.3,29.90,SW,225,0.0,-999.0,97,-99.99,,,0.08,Acu-Link.com,2013-04-30 02:00:00,
2013-04-29 22:15:00,58.6,57.8,29.90,SW,225,0.0,-999.0,97,-99.99,,,0.08,Acu-Link.com,2013-04-30 02:15:00,
2013-04-29 22:30:00,58.3,57.5,29.91,SW,225,0.0,-999.0,97,-99.99,,,0.08,Acu-Link.com,2013-04-30 02:30:00,
2013-04-29 22:46:00,57.9,57.3,29.91,WNW,292,0.0,-999.0,98,-99.99,,,0.08,Acu-Link.com,2013-04-30 02:46:00,
2013-04-29 23:01:00,57.6,57.0,29.90,West,270,0.0,-999.0,98,-99.99,,,0.08,Acu-Link.com,2013-04-30 03:01:00,
2013-04-29 23:16:00,57.2,56.6,29.90,WNW,292,0.0,-999.0,98,-99.99,,,0.08,Acu-Link.com,2013-04-30 03:16:00,
2013-04-29 23:32:00,56.8,56.5,29.90,WNW,292,0.0,-999.0,99,-99.99,,,0.08,Acu-Link.com,2013-04-30 03:32:00,
2013-04-29 23:47:00,56.5,56.2,29.90,WNW,292,0.0,-999.0,99,-99.99,,,0.08,Acu-Link.com,2013-04-30 03:47:00,